Find Gorizont

NORAD ID: 13092 Int'l Des: 1982-020 Owner: MSVYAZ Country: SU operational
HEOCIRCULAR

Current View

Loading 3D Globe...

About Gorizont

Gorizont (NORAD 13092) is a satellite launched Mar 15, 1982 by MSVYAZ of SU. It operates in HEO, CIRCULAR orbit with a mass of 2120.00 kg.

Upcoming Passes

Passes for default location (London). Set your location on the main map for personalized predictions.

Altitude History

Loading altitude history...

Two-Line Element Set

1 13092U 82020A 26194.89299992 -.00000004 00000-0 00000+0 0 9990
2 13092 8.2866 300.9332 0033181 258.6899 143.2990 0.98530471121863
Epoch: Jul 13, 2026 • Age: 20 hours

Current Status

Altitude 36247.9 km
Apogee / Perigee N/A
Velocity 3.06 km/s
Sub-Earth Point -3.54°S, 85.1°E
Launch Date Mar 15, 1982
Age 44.3 years
Type other

Technical Details

Classification Payload
Mass 2120.00 kg
Dry Mass 2000.00 kg
Total Mass 2120.00 kg
Length 5.50 m
Diameter 3.30 m
Span 9.50 m
Shape Cyl + 2 Pan
Manufacturer NPOPM
Bus Type Gorizont
Phase Status In Orbit
Owner/State MSVYAZ/SU

Most Searched